Location: Qu�bec
(46.8000°N, 71.2500°W)
Time: 01:30:31
(UTC-05:00)

Tiangong 1 - Visible Passes

Search period start: 24 February 2018 00:00
Search period end: 06 March 2018 00:00
Orbit: 246 x 267 km, 42.8° (Epoch: 23 February)

Date Brightness Start Highest point End Pass type
(mag) Time Alt. Az. Time Alt. Az. Time Alt. Az.
02 Mar 3.0 18:51:36 10° S 18:52:01 11° S 18:52:01 11° S visible
03 Mar 2.4 18:42:30 10° SSW 18:43:59 15° SSE 18:44:05 15° SSE visible
04 Mar 2.1 18:33:21 10° SW 18:35:05 19° SSE 18:35:49 16° SE visible
05 Mar 1.9 18:24:05 10° SW 18:25:57 22° S 18:27:16 14° ESE visible
